Torna al catalogo

COSMOS 2251 DEB

AttivoLEO
NORAD 34570·DEBRIS·🇷🇺 Russia

Lanciato Jun 16, 1993 da Plesetsk Cosmodrome

Loading…

Prossimi Passaggi (prossime 24 ore)

TLE

AggiornatoSource: Space-Track

Epoca: Sep 14, 2026, 13:24 UTC

1 34570U 93036VG  26257.55859558  .00000431  00000-0  26411-3 0  9997
2 34570  73.9560  98.3675 0190732 282.6402 105.7056 14.00324796894613

Traccia COSMOS 2251 DEB in tempo reale con AllMySat

Download on the App Store